Home > Weather > Belém > Past weeks

Flag for Brazil Past Weather in Belém, Pará, Brazil — Yesterday and Last 2 Weeks

Now
86 °F

Broken clouds.


Feels Like: 91 °F
Forecast: N/A
Wind: 6 mph from Southeast

Location: Belem Aeroporto

Current Time: Jul 1, 2016 at 5:48:20 PM

Latest Report: Jul 1, 2016 at 5:00 PM


Visibility: N/A

Pressure: 29.86 "Hg

Humidity: 59%

Dew Point: 70 °F

Location of BelémLocation

Past Weather in Belém — Graph

°F

Belém Temperature Yesterday

Maximum temperature yesterday: 90 °F (at 1:00 PM)
Minimum temperature yesterday: 75 °F (at 6:00 AM)
Average temperature yesterday: 82 °F

High & Low Weather Summary for the Past Weeks

 TemperatureHumidityPressure
High90 °F (Jun 20, 2:00 PM)100% (Jun 16, 7:00 PM)30.01 "Hg (Jun 16, 7:00 PM)
Low37 °F (Jun 16, 7:00 PM)52% (Jun 26, 2:00 PM)29.83 "Hg (Jun 20, 4:00 PM)
Average80 °F80%29.93 "Hg
* Reported Jun 16 4:00 PM — Jul 1 4:00 PM, Belém, Weather by CustomWeather, © 2016

Note: Actual official high and low records may vary slightly from our data, if they occured in-between our weather recording intervals... More about our weather records

Advertising

Belém Weather History for the Previous 24 Hours

Scroll right to see more
 ConditionsComfort  
Time TempWeatherWind HumidityBarometerVisibility
4:00 PM
Fri, Jul 1
88 °FBroken clouds.6 mph59%29.86 "HgN/A
3:00 PM88 °FPartly sunny.7 mph55%29.86 "HgN/A
2:00 PM90 °FPartly sunny.10 mph52%29.89 "HgN/A
1:00 PM88 °FPartly sunny.10 mph59%29.92 "HgN/A
12:00 PM88 °FPartly sunny.7 mph62%29.95 "HgN/A
11:00 AM86 °FPartly sunny.14 mph66%29.98 "HgN/A
10:00 AM84 °FPassing clouds.10 mph70%29.98 "HgN/A
9:00 AM82 °FSunny.13 mph74%29.98 "Hg10 mi
8:00 AM81 °FSunny.8 mph79%29.95 "Hg10 mi
7:00 AM77 °FSunny.7 mph89%29.95 "Hg10 mi
6:00 AM75 °FClear.6 mph94%29.92 "Hg10 mi
5:00 AM77 °FClear.6 mph89%29.92 "Hg10 mi
4:00 AM77 °FClear.6 mph89%29.92 "Hg10 mi
3:00 AM77 °FClear.7 mph89%29.92 "Hg10 mi
2:00 AM77 °FClear.7 mph89%29.92 "Hg10 mi
1:00 AM79 °FClear.6 mph84%29.95 "Hg10 mi
12:00 AM79 °FClear.9 mph84%29.95 "Hg10 mi
11:00 PM
Thu, Jun 30
79 °FClear.8 mph84%29.95 "Hg10 mi
10:00 PM79 °FClear.8 mph84%29.95 "Hg10 mi
9:00 PM79 °FClear.9 mph84%29.95 "Hg10 mi
8:00 PM81 °FPassing clouds.10 mph79%29.92 "HgN/A
7:00 PM86 °FPassing clouds.5 mph62%29.89 "HgN/A
6:00 PM86 °FPassing clouds.6 mph59%29.86 "HgN/A
5:00 PM90 °FPassing clouds.8 mph52%29.86 "HgN/A
Weather by CustomWeather, © 2016

See weather overviewHow to use our weather pages